[[{"header":{"parameterUnit":"m.s-1","parameterCategory":1,"la1":30.2991,"la2":30.254,"lo1":-89.0895,"lo2":-89.0444,"dy":0.0017,"dx":0.0017,"nx":28,"ny":28,"refTime":"2023-10-10T09:00:00:Z","depth":0,"parameterNumber":2,"parameterNumberName":"U-component_of_WINDS"},"data":[0,0,0,0,0,0,0,0,0,0,0,0,0,0,0,0,0,0,0,0,0,0,0,0,0,0,0,0,0,0,0,0,0,0,0,0,0,0,0,0,0,0,0,0,0,0,0,0,0,0,0,0,0,0,0,0,0,0,1.1305,1.1306,0,1.1345,1.1345,1.1346,1.1342,1.1341,1.1341,1.134,1.1379,1.138,1.1382,0,0,0,0,0,0,0,0,0,0,0,0,0,1.1225,1.1226,1.1305,1.1306,1.1306,1.1345,1.1345,1.1346,1.1342,1.1341,1.134,1.134,1.1378,1.138,1.1382,0,0,0,0,0,0,0,0,0,0,0,0,0,1.1261,1.1227,1.1305,1.1309,1.131,1.1345,1.1345,1.1346,1.1342,1.1341,1.134,1.1339,1.1378,1.138,1.1382,1.1416,0,0,1.139,1.1391,0,0,0,0,0,0,0,0,1.1259,1.1264,1.1308,1.1309,1.131,1.1337,1.1331,1.1369,1.1342,1.133,1.134,1.1339,1.1366,1.1369,1.1378,1.1417,1.1419,1.139,1.1392,1.1393,1.1393,0,0,0,0,0,0,0,1.1257,1.1263,1.1321,1.1309,1.131,1.1308,1.1312,1.1338,1.1352,1.1331,1.1331,1.1335,1.1366,1.1376,1.1379,1.142,1.139,1.1392,1.1394,1.1395,1.1487,1.1488,0,0,0,0,0,0,1.1254,1.1261,1.132,1.1322,1.1282,1.131,1.1315,1.1329,1.1352,1.1355,1.1336,1.1335,1.1372,1.1377,1.1381,1.142,1.1393,1.1395,1.1396,1.1486,1.1487,1.1488,0,0,0,0,0,0,1.1252,1.1259,1.1318,1.1291,1.1299,1.1313,1.1329,1.1331,1.1341,1.1356,1.1358,1.1344,1.1372,1.1377,1.1407,1.1422,1.1396,1.1398,1.1484,1.1486,1.1487,1.15,0,0,0,0,0,0,1.125,1.1258,1.1272,1.1292,1.13,1.1344,1.133,1.1332,1.1345,1.1344,1.1364,1.1367,1.1372,1.1403,1.1409,1.1424,1.14,1.1483,1.1485,1.1487,1.1498,1.1502,1.1505,0,0,0,0,0,1.1247,1.1274,1.1272,1.1279,1.1317,1.1345,1.135,1.1356,1.1346,1.1359,1.1369,1.1366,1.1419,1.1406,1.1413,1.1429,1.1482,1.1485,1.1487,1.1497,1.1501,1.1505,0,0,0,0,0,0,1.1255,1.1276,1.1275,1.1309,1.1325,1.1344,1.1361,1.136,1.1379,1.1377,1.1383,1.1387,1.1417,1.1426,1.1411,1.1462,1.1449,1.1453,1.1455,1.1459,1.1462,1.1459,1.1402,0,0,0,0,0,1.126,1.1282,1.1299,1.1328,1.1336,1.1347,1.1359,1.1362,1.1379,1.1386,1.1398,1.1413,1.1434,1.1447,1.1466,1.15,1.1503,1.1514,1.1517,1.152,1.1523,1.154,1.1545,1.1495,1.1495,1.1495,0,0,1.1272,1.1287,1.13,1.133,1.1343,1.1364,1.1353,1.1376,1.1392,1.1389,1.1418,1.1427,1.1445,1.1476,1.1491,1.1485,1.1537,1.1523,1.1525,1.1526,1.1543,1.1548,1.1552,1.1497,1.1497,1.1496,0,0,1.1305,1.1318,1.1343,1.1356,1.1376,1.1383,1.1389,1.1408,1.1414,1.1443,1.1441,1.1459,1.1494,1.1507,1.1518,1.1555,1.1552,1.1561,1.1577,1.1594,1.1598,1.1602,1.1614,1.1618,1.1564,1.1564,1.1564,0,1.1317,1.135,1.1356,1.138,1.1392,1.1391,1.1416,1.1428,1.1453,1.1461,1.1454,1.1497,1.1509,1.1543,1.1552,1.1561,1.1568,1.1558,1.1597,1.1601,1.1604,1.1616,1.162,1.1565,1.1565,1.1564,1.1564,0,1.1364,1.1386,1.1404,1.1428,1.1443,1.1467,1.1476,1.149,1.1491,1.1499,1.1527,1.1542,1.1564,1.1572,1.1574,1.1606,1.1602,1.1596,1.1583,1.1609,1.1621,1.1625,1.1566,1.1566,1.1565,1.1565,0,0,1.1403,1.143,1.1436,1.1447,1.1468,1.1485,1.1508,1.153,1.1542,1.1559,1.1578,1.1607,1.1602,1.1614,1.1617,1.1632,1.1659,1.1624,1.1625,1.163,1.1694,1.1698,1.1703,1.1657,1.1658,1.1659,1.1692,0,1.1437,1.1479,1.1485,1.1522,1.1542,1.1541,1.1561,1.1576,1.1584,1.1601,1.1609,1.163,1.1622,1.1629,1.1644,1.1653,1.1672,1.165,1.1674,1.1675,1.167,1.1709,1.1713,1.1744,1.1697,1.1698,1.1698,0,1.1483,1.1501,1.1541,1.1558,1.1567,1.1585,1.1605,1.1622,1.1639,1.1643,1.1657,1.1657,1.1681,1.1667,1.1699,1.1684,1.1694,1.17,1.1701,1.1703,1.1688,1.1712,1.1754,1.1759,1.1705,1.1705,1.1704,0,1.1507,1.1541,1.1569,1.1578,1.16,1.1612,1.1622,1.1637,1.1649,1.1667,1.1675,1.1694,1.1705,1.1719,1.1725,1.1715,1.1756,1.1743,1.1759,1.1759,1.1768,1.1767,1.1812,1.1775,1.1775,1.1775,1.1775,0,1.1544,1.1568,1.158,1.1597,1.1623,1.1629,1.1654,1.1663,1.1677,1.1695,1.1695,1.1711,1.1718,1.1736,1.174,1.1765,1.177,1.1773,1.1774,1.1773,1.1773,1.178,1.1777,1.1776,1.1776,1.1776,1.1776,0,1.1575,1.1584,1.1614,1.1632,1.1637,1.1655,1.167,1.1686,1.1693,1.1716,1.1721,1.1732,1.1753,1.176,1.1785,1.1788,1.1816,1.1816,1.1811,1.1811,1.1827,1.1825,1.1877,1.1884,1.1843,1.1844,1.1844,0,1.1599,1.1617,1.1637,1.1649,1.1659,1.1679,1.1691,1.1697,1.171,1.173,1.1743,1.1764,1.178,1.1813,1.1823,1.1841,1.1841,1.1858,1.1843,1.1841,1.184,1.1839,1.184,1.186,1.1861,1.1861,1.1861,0,1.1638,1.1642,1.1661,1.1681,1.1696,1.1712,1.1727,1.1737,1.1745,1.176,1.1781,1.1794,1.1819,1.1839,1.1858,1.1867,1.1865,1.1866,1.187,1.1869,1.1865,1.1867,1.1818,1.1864,1.1864,1.1864,1.1864,1.1864,1.1666,1.1682,1.1698,1.1718,1.1731,1.1745,1.176,1.177,1.1787,1.1809,1.1811,1.1834,1.1848,1.1874,1.1883,1.19,1.1895,1.1902,1.1904,1.1905,1.1906,1.1863,1.1904,1.1904,1.1904,1.1904,1.1904,0,1.1705,1.1716,1.1734,1.1756,1.1772,1.177,1.1786,1.1799,1.1819,1.1833,1.185,1.1873,1.1892,1.1904,1.1922,1.1934,1.1933,1.1938,1.1937,1.1939,1.191,1.1904,1.1938,1.1938,1.1938,1.1938,1.1938,1.1938,1.1728,1.1754,1.1759,1.1791,1.1801,1.1824,1.1833,1.1846,1.1857,1.1884,1.19,1.1907,1.1919,1.1939,1.1956,1.1959,1.1965,1.1971,1.1973,1.1945,1.1941,1.1938,1.1932,1.1972,1.1972,1.2001,1.2001,1.2001]},{"header":{"parameterUnit":"m.s-1","parameterCategory":1,"la1":30.2991,"la2":30.254,"lo1":-89.0895,"lo2":-89.0444,"dy":0.0017,"dx":0.0017,"nx":28,"ny":28,"refTime":"2023-10-10T09:00:00:Z","depth":0,"parameterNumber":3,"parameterNumberName":"V-component_of_WINDS"},"data":[0,0,0,0,0,0,0,0,0,0,0,0,0,0,0,0,0,0,0,0,0,0,0,0,0,0,0,0,0,0,0,0,0,0,0,0,0,0,0,0,0,0,0,0,0,0,0,0,0,0,0,0,0,0,0,0,0,0,1.0159,1.016,0,1.0258,1.0259,1.026,1.0269,1.0268,1.0267,1.0266,1.0368,1.0372,1.0376,0,0,0,0,0,0,0,0,0,0,0,0,0,0.998,0.9983,1.0159,1.016,1.0162,1.0258,1.0259,1.026,1.0269,1.0268,1.0267,1.0266,1.0367,1.0372,1.0376,0,0,0,0,0,0,0,0,0,0,0,0,0,1.0066,0.9984,1.0159,1.0178,1.018,1.0257,1.0259,1.0261,1.027,1.0268,1.0267,1.0265,1.0366,1.0371,1.0377,1.0442,0,0,1.0394,1.0396,0,0,0,0,0,0,0,0,1.0061,1.0073,1.0174,1.0177,1.018,1.025,1.0233,1.0322,1.027,1.0236,1.0266,1.0264,1.033,1.0339,1.0361,1.0447,1.0451,1.0394,1.0397,1.04,1.0401,0,0,0,0,0,0,0,1.0055,1.0068,1.0198,1.0175,1.0179,1.0182,1.0192,1.025,1.0291,1.0239,1.024,1.0251,1.0332,1.0355,1.0363,1.0453,1.0394,1.0399,1.0402,1.0404,1.0598,1.06,0,0,0,0,0,0,1.0045,1.0063,1.0195,1.0201,1.0115,1.0186,1.0198,1.0229,1.029,1.0298,1.0252,1.0251,1.0346,1.0357,1.0367,1.0448,1.04,1.0405,1.0408,1.0597,1.0599,1.0601,0,0,0,0,0,0,1.0042,1.0057,1.0191,1.0133,1.015,1.0191,1.0225,1.0232,1.0255,1.03,1.0308,1.0269,1.0346,1.0359,1.0423,1.0452,1.0407,1.0412,1.0595,1.0597,1.06,1.0611,0,0,0,0,0,0,1.0036,1.0056,1.0081,1.0133,1.0153,1.0246,1.0227,1.0235,1.0265,1.0264,1.0318,1.0325,1.0345,1.0415,1.0429,1.0458,1.0417,1.0592,1.0596,1.0599,1.0608,1.0614,1.0618,0,0,0,0,0,1.003,1.008,1.0082,1.0098,1.0185,1.0247,1.0259,1.0281,1.0267,1.0293,1.0322,1.0324,1.0446,1.0422,1.0437,1.0469,1.0591,1.0595,1.0599,1.0606,1.0612,1.0618,0,0,0,0,0,0,1.003,1.0087,1.009,1.0158,1.0198,1.0249,1.0282,1.0287,1.0332,1.0329,1.0355,1.0367,1.0431,1.0456,1.0428,1.0536,1.0517,1.0524,1.0517,1.0524,1.0529,1.0521,1.0421,0,0,0,0,0,1.0038,1.0084,1.0131,1.0187,1.0207,1.0241,1.0269,1.0282,1.0324,1.0341,1.0375,1.0416,1.0464,1.0495,1.0542,1.0611,1.0624,1.0641,1.0646,1.065,1.0656,1.0696,1.0704,1.0614,1.0614,1.0614,0,0,1.0055,1.0092,1.0119,1.0188,1.022,1.0267,1.0255,1.0305,1.0341,1.0349,1.0412,1.0438,1.0486,1.0554,1.0585,1.0577,1.0684,1.0655,1.0658,1.0663,1.0701,1.0709,1.0717,1.0617,1.0617,1.0616,0,0,1.0111,1.0143,1.0193,1.0226,1.0274,1.0297,1.0309,1.0359,1.0377,1.044,1.0448,1.049,1.0572,1.0606,1.0634,1.0702,1.0706,1.0716,1.0743,1.0781,1.0788,1.0795,1.082,1.0828,1.0722,1.0722,1.0722,0,1.0126,1.0197,1.0218,1.0269,1.0299,1.0308,1.036,1.039,1.0452,1.0473,1.0462,1.0565,1.0598,1.0674,1.0691,1.0713,1.0728,1.0711,1.0785,1.0792,1.0798,1.0823,1.0832,1.0723,1.0723,1.0723,1.0723,0,1.0213,1.0263,1.0297,1.0357,1.0391,1.0441,1.0471,1.0503,1.0513,1.0536,1.0601,1.0641,1.0696,1.0714,1.0725,1.0792,1.0786,1.078,1.0762,1.0808,1.0831,1.084,1.0725,1.0724,1.0724,1.0724,0,0,1.0272,1.0343,1.0355,1.0382,1.0437,1.0475,1.0526,1.058,1.0607,1.0649,1.0693,1.0762,1.0757,1.0789,1.0803,1.0837,1.0889,1.0827,1.0829,1.0838,1.0966,1.097,1.098,1.0891,1.0893,1.0895,1.0962,0,1.0334,1.0426,1.0446,1.0525,1.0571,1.058,1.0625,1.0663,1.0687,1.0729,1.0755,1.0804,1.0794,1.0813,1.0846,1.0875,1.0915,1.0871,1.0933,1.0935,1.0922,1.0992,1.0997,1.1059,1.0971,1.0973,1.0974,0,1.0419,1.0463,1.0546,1.0595,1.0615,1.0655,1.0706,1.0746,1.079,1.0805,1.084,1.0851,1.0905,1.0883,1.0958,1.0928,1.0954,1.0972,1.0975,1.0983,1.0958,1.1002,1.1079,1.1089,1.0988,1.0987,1.0986,0,1.0455,1.0535,1.0595,1.0618,1.0676,1.0704,1.0729,1.0772,1.0802,1.0847,1.0867,1.0917,1.0945,1.0983,1.1008,1.099,1.1081,1.1061,1.1096,1.1095,1.1115,1.1114,1.1198,1.1131,1.1131,1.1131,1.113,0,1.0522,1.0573,1.0612,1.0649,1.0706,1.0729,1.0785,1.0811,1.0849,1.0891,1.0902,1.0942,1.0971,1.1015,1.1034,1.1094,1.1106,1.112,1.1125,1.112,1.1118,1.1138,1.1135,1.1133,1.1133,1.1132,1.1132,0,1.0572,1.06,1.0666,1.0716,1.073,1.077,1.0812,1.0849,1.0872,1.0926,1.094,1.0977,1.1029,1.1057,1.1122,1.1135,1.1202,1.1204,1.1187,1.119,1.1222,1.1219,1.1323,1.1338,1.126,1.1261,1.1262,0,1.0614,1.0653,1.0707,1.0736,1.0762,1.0809,1.084,1.0865,1.0897,1.095,1.0981,1.1033,1.1077,1.116,1.1193,1.1243,1.1247,1.128,1.1255,1.1248,1.1248,1.1246,1.125,1.1285,1.1285,1.1286,1.1286,0,1.0685,1.0697,1.0742,1.0792,1.0829,1.0869,1.0909,1.0933,1.0964,1.1,1.1053,1.1087,1.1153,1.1206,1.1259,1.1285,1.1292,1.1294,1.1305,1.13,1.1289,1.1296,1.12,1.1292,1.1291,1.1291,1.1291,1.129,1.0733,1.0768,1.0812,1.0862,1.0894,1.0931,1.0968,1.0996,1.1041,1.1097,1.1109,1.1165,1.1209,1.128,1.1308,1.1353,1.1346,1.1362,1.1366,1.1369,1.1371,1.1281,1.1363,1.1362,1.1362,1.1362,1.1362,0,1.0806,1.0834,1.0879,1.0935,1.0974,1.0976,1.102,1.1053,1.1102,1.1142,1.1185,1.1246,1.1297,1.1334,1.1386,1.1415,1.1419,1.1427,1.1426,1.1432,1.1374,1.1359,1.1423,1.1423,1.1423,1.1423,1.1423,1.1423,1.0848,1.0908,1.0925,1.1002,1.103,1.1085,1.1111,1.1145,1.1177,1.1245,1.1287,1.131,1.1349,1.1404,1.1451,1.146,1.1479,1.1488,1.1498,1.1443,1.1436,1.143,1.1417,1.1492,1.1492,1.1553,1.1553,1.1554]}]]